RSC98QQ GCLP-GCXO

Flight info

Callsign RSC98QQ
Flight time 0h 20m
Altitude 9000
Route TFN
Aircraft AT76/M-SDFGRY/LB1

Departure

Time 2026-04-24 16:41
Airport Gran Canaria Airport (GCLP)

Arrival

Time 2026-04-24 17:02
Airport Tenerife Norte-Ciudad de La Laguna Airport (GCXO)
Time Latitude Longitude Altitude Speed Heading
2026-04-24 16:32 27.94086 -15.38702 81 ft 0 kts 291°
2026-04-24 16:37 27.94082 -15.38691 83 ft 5 kts 292°
2026-04-24 16:37 27.94051 -15.38640 70 ft 8 kts 346°
2026-04-24 16:37 27.94048 -15.38636 77 ft 6 kts 21°
2026-04-24 16:37 27.94047 -15.38503 65 ft 18 kts 127°
2026-04-24 16:38 27.93898 -15.38537 73 ft 31 kts 201°
2026-04-24 16:38 27.93699 -15.38625 70 ft 31 kts 201°
2026-04-24 16:38 27.93513 -15.38707 73 ft 26 kts 201°
2026-04-24 16:38 27.93331 -15.38788 69 ft 29 kts 201°
2026-04-24 16:39 27.93148 -15.38872 69 ft 29 kts 207°
2026-04-24 16:39 27.92964 -15.38957 71 ft 29 kts 201°
2026-04-24 16:39 27.92780 -15.39039 82 ft 28 kts 202°
2026-04-24 16:39 27.92658 -15.39092 86 ft 27 kts 201°
2026-04-24 16:40 27.92477 -15.39172 90 ft 29 kts 201°
2026-04-24 16:40 27.92288 -15.39256 96 ft 29 kts 201°
2026-04-24 16:40 27.92089 -15.39304 90 ft 31 kts 176°
2026-04-24 16:40 27.91931 -15.39273 87 ft 20 kts 130°
2026-04-24 16:41 27.91970 -15.39197 81 ft 10 kts 21°
2026-04-24 16:41 27.92246 -15.39075 75 ft 76 kts 22°
2026-04-24 16:41 27.92890 -15.38792 212 ft 111 kts 22°
2026-04-24 16:41 27.93601 -15.38497 816 ft 109 kts 22°
2026-04-24 16:42 27.94351 -15.38184 1020 ft 131 kts 20°
2026-04-24 16:42 27.95317 -15.37767 1099 ft 159 kts 19°
2026-04-24 16:42 27.96366 -15.37303 1497 ft 163 kts 20°
2026-04-24 16:42 27.97406 -15.36850 1945 ft 164 kts 20°
2026-04-24 16:43 27.98466 -15.36397 2422 ft 163 kts 20°
2026-04-24 16:43 27.99541 -15.35924 2858 ft 165 kts 19°
2026-04-24 16:43 28.00612 -15.35445 3282 ft 166 kts 19°
2026-04-24 16:43 28.01684 -15.34990 3689 ft 167 kts 18°
2026-04-24 16:44 28.02789 -15.34530 4084 ft 169 kts 15°
2026-04-24 16:44 28.03921 -15.34634 4482 ft 169 kts 327°
2026-04-24 16:44 28.04680 -15.35633 4831 ft 170 kts 303°
2026-04-24 16:44 28.05301 -15.36779 5237 ft 172 kts 303°
2026-04-24 16:45 28.05939 -15.37935 5627 ft 173 kts 302°
2026-04-24 16:45 28.06559 -15.39103 6012 ft 174 kts 301°
2026-04-24 16:45 28.07185 -15.40299 6326 ft 179 kts 301°
2026-04-24 16:45 28.07820 -15.41510 6683 ft 179 kts 302°
2026-04-24 16:46 28.08459 -15.42725 7043 ft 180 kts 302°
2026-04-24 16:46 28.09096 -15.43944 7374 ft 181 kts 300°
2026-04-24 16:46 28.09738 -15.45179 7703 ft 182 kts 300°
2026-04-24 16:46 28.10387 -15.46414 8041 ft 183 kts 300°
2026-04-24 16:47 28.11040 -15.47648 8368 ft 183 kts 300°
2026-04-24 16:47 28.11698 -15.48893 8687 ft 184 kts 300°
2026-04-24 16:47 28.12360 -15.50150 8928 ft 190 kts 299°
2026-04-24 16:47 28.13054 -15.51472 9005 ft 201 kts 299°
2026-04-24 16:48 28.13788 -15.52871 9043 ft 213 kts 300°
2026-04-24 16:48 28.14562 -15.54347 9073 ft 223 kts 300°
2026-04-24 16:48 28.15369 -15.55884 9069 ft 231 kts 300°
2026-04-24 16:48 28.16196 -15.57463 9076 ft 236 kts 300°
2026-04-24 16:49 28.17039 -15.59072 9075 ft 240 kts 300°
2026-04-24 16:49 28.17897 -15.60712 9075 ft 243 kts 300°
2026-04-24 16:49 28.18763 -15.62368 9081 ft 245 kts 300°
2026-04-24 16:49 28.19636 -15.64033 9079 ft 247 kts 300°
2026-04-24 16:50 28.20214 -15.65139 9080 ft 247 kts 300°
2026-04-24 16:50 28.21390 -15.67385 9085 ft 248 kts 300°
2026-04-24 16:50 28.22270 -15.69070 9082 ft 248 kts 300°
2026-04-24 16:50 28.23153 -15.70757 9087 ft 249 kts 300°
2026-04-24 16:51 28.24036 -15.72445 9088 ft 248 kts 300°
2026-04-24 16:51 28.24914 -15.74129 9084 ft 248 kts 300°
2026-04-24 16:51 28.25794 -15.75811 9091 ft 248 kts 300°
2026-04-24 16:51 28.26672 -15.77497 9096 ft 248 kts 300°
2026-04-24 16:52 28.27551 -15.79179 9091 ft 248 kts 300°
2026-04-24 16:52 28.28430 -15.80868 9097 ft 248 kts 299°
2026-04-24 16:52 28.29310 -15.82556 9088 ft 248 kts 300°
2026-04-24 16:52 28.30178 -15.84221 9089 ft 248 kts 299°
2026-04-24 16:53 28.31058 -15.85907 9085 ft 249 kts 300°
2026-04-24 16:53 28.31939 -15.87594 9091 ft 248 kts 300°
2026-04-24 16:53 28.32807 -15.89307 8866 ft 256 kts 296°
2026-04-24 16:53 28.33537 -15.91205 8424 ft 268 kts 291°
2026-04-24 16:54 28.34219 -15.93132 7981 ft 258 kts 292°
2026-04-24 16:54 28.34613 -15.94226 7746 ft 252 kts 292°
2026-04-24 16:54 28.35378 -15.96168 7364 ft 252 kts 295°
2026-04-24 16:54 28.36158 -15.97986 7007 ft 253 kts 296°
2026-04-24 16:55 28.36907 -15.99751 6745 ft 252 kts 295°
2026-04-24 16:55 28.37598 -16.01605 6511 ft 258 kts 291°
2026-04-24 16:55 28.38204 -16.03487 6264 ft 250 kts 290°
2026-04-24 16:55 28.38757 -16.05334 6104 ft 245 kts 289°
2026-04-24 16:56 28.39312 -16.07164 6037 ft 246 kts 290°
2026-04-24 16:56 28.39901 -16.08961 6006 ft 232 kts 292°
2026-04-24 16:56 28.40461 -16.10577 5992 ft 210 kts 292°
2026-04-24 16:56 28.40972 -16.12083 5831 ft 199 kts 291°
2026-04-24 16:57 28.41446 -16.13555 5580 ft 201 kts 290°
2026-04-24 16:57 28.41937 -16.15057 5317 ft 204 kts 291°
2026-04-24 16:57 28.42444 -16.16546 5055 ft 199 kts 290°
2026-04-24 16:57 28.42914 -16.18002 4797 ft 193 kts 291°
2026-04-24 16:58 28.43383 -16.19413 4529 ft 189 kts 291°
2026-04-24 16:58 28.43835 -16.20795 4284 ft 185 kts 291°
2026-04-24 16:58 28.44278 -16.22122 4045 ft 174 kts 292°
2026-04-24 16:58 28.44696 -16.23361 3824 ft 163 kts 292°
2026-04-24 16:59 28.45085 -16.24549 3612 ft 157 kts 292°
2026-04-24 16:59 28.45453 -16.25675 3442 ft 146 kts 292°
2026-04-24 16:59 28.46107 -16.27643 3053 ft 120 kts 294°
2026-04-24 17:00 28.46412 -16.28558 2879 ft 125 kts 294°
2026-04-24 17:00 28.46999 -16.30342 2494 ft 118 kts 293°
2026-04-24 17:00 28.47287 -16.31201 2348 ft 115 kts 296°
2026-04-24 17:01 28.47849 -16.32897 2031 ft 116 kts 291°
2026-04-24 17:01 28.48100 -16.33655 2038 ft 87 kts 291°
2026-04-24 17:02 28.48360 -16.34200 2048 ft 22 kts 322°
2026-04-24 17:02 28.48440 -16.34328 2052 ft 22 kts 291°
2026-04-24 17:02 28.48504 -16.34520 2061 ft 25 kts 291°
2026-04-24 17:02 28.48559 -16.34665 2069 ft 15 kts 324°
2026-04-24 17:03 28.48669 -16.34629 2066 ft 1 kts 20°